Regional Weather Roundup
Issued by NWS

Home | Current Version | Previous Version | Graphics & Text | Print | Product List | Glossary On
Versions: 1 2 3 4 5 6 7 8 9 10 11 12 13 14 15 16 17 18 19 20 21 22 23 24 25 26 27 28 29 30 31 32 33 34 35 36 37 38 39 40 41 42 43 44 45 46 47 48 49 50
000
ASUS43 KBIS 290720
RWRND

NORTH DAKOTA REGIONAL WEATHER ROUNDUP
NATIONAL WEATHER SERVICE BISMARCK ND
200 AM CDT SUN MAR 29 2015

NOTE: "FAIR" INDICATES FEW OR NO CLOUDS BELOW 12,000 FEET WITH NO
SIGNIFICANT WEATHER AND/OR OBSTRUCTIONS TO VISIBILITY.


NDZ001>003-009>011-017-290800-
NORTHWEST NORTH DAKOTA

CITY           SKY/WX    TMP DP  RH WIND       PRES   REMARKS
WILLISTON      CLOUDY    41  37  86 NW22G39   29.79R
MINOT          LGT RAIN  46  43  89 NW31G38   29.58R
MINOT AFB      CLOUDY    44  44 100 NW29G38   29.58R
$$

NDZ018>021-031>035-040>046-290800-
SOUTHWEST NORTH DAKOTA

CITY           SKY/WX    TMP DP  RH WIND       PRES   REMARKS
BISMARCK       CLOUDY    48  41  76 W17       29.61F
DICKINSON      RAIN      42  38  85 W30G40    29.67R
GARRISON         N/A     46  43  89 W17G29    29.58R
HETTINGER ARPT PTCLDY    46  33  60 W35G45    29.71F
$$

NDZ004>008-012>016-024-026-027-054-290800-
NORTHEAST NORTH DAKOTA

CITY           SKY/WX    TMP DP  RH WIND       PRES   REMARKS
GRAND FORKS    CLOUDY    43  36  75 S22G31    29.44F
GRND FRKS AFB  CLOUDY    43  37  81 SW22G30   29.43F
DEVILS LAKE    CLOUDY    46  43  87 NW22G29   29.44S
$$

NDZ022-023-025-028>030-036>039-047>053-290800-
SOUTHEAST NORTH DAKOTA

CITY           SKY/WX    TMP DP  RH WIND       PRES   REMARKS
FARGO          LGT RAIN  43  32  65 S17       29.57F
JAMESTOWN      CLOUDY    49  45  86 W17G24    29.50F
$$



USA.gov is the U.S. government's official web portal to all federal, state and local government web resources and services.